Tracking 30166 objects as of 22-Jan-2025
HD Live streaming from Space Station
objects crossing your sky now

COSMOS 2580

Track COSMOS 2580 now!
10-day predictions


NORAD ID: 62216
Int'l Code: 2024-230A
Perigee: 907.8 km
Apogee: 917.1 km
Inclination: 67.1 °
Period: 103.1 minutes
Semi major axis: 7283 km
RCS: Unknown
Launch date: December 4, 2024
Source: Commonwealth of Independent States (former USSR) (CIS)
Launch site: PLESETSK MISSILE AND SPACE COMPLEX (PKMTR)
Your satellite tracking list
Your tracking list is empty




NASA's NSSDC Master Catalog

Two Line Element Set (TLE):
1 62216U 24230A   25021.94258816  .00000030  00000-0  75849-4 0  9991
2 62216  67.1435 213.4320 0006331 263.8494  96.1869 13.96677897  6748
Source of the keplerian elements: AFSPC